Appleton, WI

3:18 AM CDT on October 14, 2019 (GMT -0500)
Outagamie County Regional

Weather History for KATW - August, 2019

Change the Weather History Date:

Monday, August 26, 2019

  Actual Average Record
Temperature  
Mean Temperature 64 °F -  
Max Temperature 66 °F 78 °F 94 °F (1948)
Min Temperature 62 °F 60 °F 47 °F (1964)
Degree Days  
Heating Degree Days 1    
Growing Degree Days 14 (Base 50)    
Moisture  
Dew Point 62 °F    
Average Humidity 93    
Maximum Humidity 100    
Minimum Humidity 68    
Precipitation  
Precipitation 0.01 in - - ()
Sea Level Pressure  
Sea Level Pressure 29.82 in    
Wind  
Wind Speed 5 mph ()    
Max Wind Speed 9 mph    
Max Gust Speed -    
Visibility 6.2 miles    
Events Fog , Rain    
Averages and records for this station are not official NWS values.
T = Trace of Precipitation, MM = Missing Value Source: Averaged Metar Reports

Daily Weather History Graph

Daily Weather History Graph

Search for Another Location

Airport or City:

Astronomy

Aug. 26, 2019 Rise Set
Actual Time 6:09 AM CDT 7:41 PM CDT
Civil Twilight 5:39 AM CDT 8:11 PM CDT
Nautical Twilight 5:02 AM CDT 8:48 PM CDT
Astronomical Twilight 4:23 AM CDT 9:27 PM CDT
Moon 1:26 AM CDT (8/26) 5:12 PM CDT (8/26)
Length of Visible Light 14h 31m
Length of Day
13h 31m
Waning Crescent, 19% of the Moon is Illuminated
Aug 26
Waning Crescent
Aug 30
New
Sep 5
First Quarter
Sep 13
Full
Sep 21
Last Quarter

Hourly Weather History & Observations

Time (CDT) Temp. Dew Point Humidity Pressure Visibility Wind Dir Wind Speed Gust Speed Precip Events Conditions
12:15 AM 62.6 °F 51.8 °F 68% 30.00 in 10.0 mi East 4.6 mph - N/A   Scattered Clouds
12:35 AM 62.6 °F 51.8 °F 68% 29.99 in 10.0 mi East 4.6 mph - N/A   Scattered Clouds
12:55 AM 62.6 °F 53.6 °F 72% 29.99 in 10.0 mi East 5.8 mph - N/A Rain Light Rain
1:15 AM 62.6 °F 53.6 °F 72% 29.98 in 10.0 mi ENE 5.8 mph - N/A   Clear
1:35 AM 62.6 °F 53.6 °F 72% 29.98 in 10.0 mi ENE 6.9 mph - N/A   Clear
1:55 AM 62.6 °F 53.6 °F 72% 29.97 in 10.0 mi East 4.6 mph - N/A   Mostly Cloudy
2:15 AM 62.6 °F 55.4 °F 77% 29.96 in 10.0 mi East 3.5 mph - N/A   Overcast
2:35 AM 62.6 °F 55.4 °F 77% 29.96 in 10.0 mi East 4.6 mph - N/A   Light Drizzle
2:55 AM 62.6 °F 55.4 °F 77% 29.96 in 10.0 mi ESE 3.5 mph - N/A Rain Light Rain
3:15 AM 62.6 °F 60.8 °F 94% 29.95 in 10.0 mi East 4.6 mph - N/A Rain Light Rain
3:35 AM 62.6 °F 60.8 °F 94% 29.95 in 10.0 mi ESE 4.6 mph - N/A Rain Light Rain
3:55 AM 62.6 °F 60.8 °F 94% 29.94 in 10.0 mi SE 8.1 mph - N/A   Overcast
4:15 AM 62.6 °F 60.8 °F 94% 29.94 in 10.0 mi ESE 5.8 mph - N/A   Drizzle
4:35 AM 62.6 °F 60.8 °F 94% 29.93 in 10.0 mi ESE 5.8 mph - N/A   Drizzle
5:15 AM 62.6 °F 60.8 °F 94% 29.93 in 10.0 mi ESE 5.8 mph - 0.01 in   Drizzle
5:20 AM 64.4 °F 64.4 °F 100% 29.93 in 5.0 mi ESE 5.8 mph - N/A   Overcast
5:45 AM 64.4 °F 64.4 °F 100% 29.93 in 5.0 mi ESE 5.8 mph - N/A   Overcast
6:45 AM 62.6 °F 62.6 °F 100% 29.92 in 7.0 mi ESE 3.5 mph - N/A   Overcast
7:45 AM 64.4 °F 64.4 °F 100% 29.90 in 5.0 mi East 5.8 mph - N/A   Overcast
8:45 AM 64.4 °F 64.4 °F 100% 29.89 in 5.0 mi East 4.6 mph - N/A   Overcast
9:21 AM 64.4 °F 64.4 °F 100% 29.88 in 4.0 mi Variable 5.8 mph - N/A Rain Light Rain
9:45 AM 64.4 °F 64.4 °F 100% 29.88 in 5.0 mi Variable 5.8 mph - N/A   Light Drizzle
10:45 AM 64.4 °F 64.4 °F 100% 29.84 in 5.0 mi East 8.1 mph - N/A   Light Drizzle
11:45 AM 64.4 °F 64.4 °F 100% 29.82 in 5.0 mi East 8.1 mph - N/A   Overcast
12:45 PM 64.4 °F 62.6 °F 94% 29.80 in 3.0 mi East 8.1 mph - N/A Rain Light Rain
1:45 PM 64.4 °F 62.6 °F 94% 29.78 in 3.0 mi Variable 5.8 mph - N/A Rain Light Rain
2:15 PM 64.4 °F 62.6 °F 94% 29.77 in 2.0 mi East 9.2 mph - N/A Rain Light Rain
2:45 PM 64.4 °F 64.4 °F 100% 29.75 in 5.0 mi East 9.2 mph - N/A Rain Light Rain
3:45 PM 64.4 °F 64.4 °F 100% 29.73 in 7.0 mi Variable 5.8 mph - N/A   Overcast
4:45 PM 66.2 °F 66.2 °F 100% 29.69 in 10.0 mi East 6.9 mph - N/A   Overcast
5:30 PM 66.2 °F 66.2 °F 100% 29.68 in 3.0 mi ENE 6.9 mph - N/A   Overcast
5:45 PM 66.2 °F 66.2 °F 100% 29.68 in 2.0 mi ENE 6.9 mph - N/A   Overcast
6:45 PM 64.4 °F 64.4 °F 100% 29.66 in 1.5 mi NNE 5.8 mph - N/A   Overcast
7:25 PM 64.4 °F 64.4 °F 100% 29.66 in 2.0 mi North 5.8 mph - N/A Rain Light Rain
7:45 PM 64.4 °F 64.4 °F 100% 29.66 in 2.0 mi North 5.8 mph - N/A Rain Light Rain
8:10 PM 64.4 °F 64.4 °F 100% 29.65 in 7.0 mi North 5.8 mph - N/A   Light Drizzle
8:45 PM 64.4 °F 64.4 °F 100% 29.65 in 10.0 mi NNW 5.8 mph - N/A   Overcast
9:45 PM 64.4 °F 64.4 °F 100% 29.65 in 10.0 mi NW 5.8 mph - N/A   Overcast
10:05 PM 64.4 °F 64.4 °F 100% 29.65 in 4.0 mi NW 5.8 mph - N/A   Overcast
10:45 PM 64.4 °F 64.4 °F 100% 29.65 in 1.5 mi West 4.6 mph - N/A   Overcast
10:55 PM 62.6 °F 62.6 °F 100% 29.65 in 1.2 mi West 5.8 mph - N/A   Overcast
11:15 PM 62.6 °F 62.6 °F 100% 29.65 in 0.5 mi West 8.1 mph - N/A Fog Fog
11:35 PM 62.6 °F 62.6 °F 100% 29.65 in 1.5 mi West 8.1 mph - N/A   Overcast
11:55 PM 62.6 °F 62.6 °F 100% 29.64 in 2.0 mi West 8.1 mph - N/A   Overcast